STARLINK-4302 (53481 NORAD) Tracking and Keplerian Element Data

This shows tracking and keplerian element data for the satellite.

Feedback or suggestion? Click here.




ElementValue
Catalog53481
NameSTARLINK-4302
Epoch Orbit1550
Epoch Day325.16192959
Epoch Year2022
RAAN84.204
Inclination97.6587
Eccentricity9E-05
Argument of Perigee346.049
Mean Anonmoly14.0709
Mean Motion15.01264212
Decay Rate9.86E-06
L11 53481U 22099S 22325.16192959 .00000986 00000+0 81331-4 0 9991
L22 53481 97.6587 84.2040 0000900 346.0490 14.0709 15.01264212 15504



Live tracking and technical data element details for STARLINK-4302 (NORAD 53481). STARLINK-4302 can be tracked NOW for your location showing map with azimuth and elevation plus other details from your city location.







IsCatalogInMostPopularTable: catalog: 53481, numindb: 2
Update: records affected: 1



GetName: 53481 STARLINK-4302

Hit Count: updated at: Thu, 08 Dec 2022 08:47:55 GMT